,,,PA_Meas_PMT16A,,PR_Meas_QMR101_102,,RH_Meas_QMH101,,SR_Meas_QMS101,,TA_Meas_QMH101,,GenWind,,GenWind,
date,time,status,PA,status,PR,status,RH,status,SR,status,TA,status,DirAvg,status,SpdAvg,
2013-12-30, 00:00:04,VALID,1010.09,VALID,0,VALID,104,VALID,0,VALID,23.3628,VALID,89,VALID,0.823047,
2013-12-30, 00:01:04,VALID,1010.1,VALID,0,VALID,104,VALID,0,VALID,23.3628,VALID,79,VALID,0.858203,
2013-12-30, 00:02:04,VALID,1010.08,VALID,0,VALID,104,VALID,0,VALID,23.3433,VALID,79,VALID,0.788281,
2013-12-30, 00:03:04,VALID,1010.06,VALID,0,VALID,104,VALID,0,VALID,23.3433,VALID,79,VALID,0.855859,
2013-12-30, 00:04:04,VALID,1010.03,VALID,0,VALID,104,VALID,0,VALID,23.3433,VALID,84,VALID,1.16328,
2013-12-30, 00:05:04,VALID,1010.02,VALID,0,VALID,104,VALID,0,VALID,23.3238,VALID,79,VALID,1.00039,
2013-12-30, 00:06:04,VALID,1010,VALID,0,VALID,104,VALID,0,VALID,23.3238,VALID,77,VALID,0.770312,
2013-12-30, 00:07:04,VALID,1009.99,VALID,0,VALID,104,VALID,0.112112,VALID,23.3238,VALID,77,VALID,1,
2013-12-30, 00:08:04,VALID,1009.99,VALID,0,VALID,104,VALID,0,VALID,23.3043,VALID,77,VALID,1.12969,
2013-12-30, 00:09:04,VALID,1009.98,VALID,0,VALID,104,VALID,0,VALID,23.3451,VALID,77,VALID,0.676953,
2013-12-30, 00:10:04,VALID,1009.97,VALID,0,VALID,104,VALID,0,VALID,23.3238,VALID,77,VALID,0.740625,
2013-12-30, 00:11:04,VALID,1009.96,VALID,0,VALID,104,VALID,0,VALID,23.3043,VALID,77,VALID,0.6125,
2013-12-30, 00:12:04,VALID,1009.96,VALID,0,VALID,104,VALID,0,VALID,23.3043,VALID,77,VALID,0.171484,
2013-12-30, 00:13:04,VALID,1009.92,VALID,0,VALID,104,VALID,0,VALID,23.3238,VALID,77,VALID,0.00429688,
2013-12-30, 00:14:04,VALID,1009.9,VALID,0,VALID,104,VALID,0,VALID,23.3043,VALID,77,VALID,0.15625,
2013-12-30, 00:15:04,VALID,1009.89,VALID,0,VALID,104,VALID,0,VALID,23.3043,VALID,77,VALID,0.221484,
2013-12-30, 00:16:04,VALID,1009.88,VALID,0,VALID,104,VALID,0,VALID,23.2848,VALID,77,VALID,0.733984,
2013-12-30, 00:17:04,VALID,1009.88,VALID,0,VALID,104,VALID,0,VALID,23.2848,VALID,74,VALID,1.01719,
2013-12-30, 00:18:04,VALID,1009.88,VALID,0,VALID,104,VALID,0,VALID,23.2848,VALID,70,VALID,0.650781,
2013-12-30, 00:19:04,VALID,1009.84,VALID,0,VALID,104,VALID,0,VALID,23.2848,VALID,70,VALID,0.384766,
2013-12-30, 00:20:04,VALID,1009.9,VALID,0,VALID,104,VALID,0.112112,VALID,23.2848,VALID,70,VALID,0.767187,
2013-12-30, 00:21:04,VALID,1009.86,VALID,0,VALID,104,VALID,0.112112,VALID,23.2848,VALID,70,VALID,0.292578,
2013-12-30, 00:22:04,VALID,1009.84,VALID,0,VALID,104,VALID,0,VALID,23.2848,VALID,69,VALID,0.147656,
2013-12-30, 00:23:04,VALID,1009.84,VALID,0,VALID,104,VALID,0,VALID,23.2459,VALID,70,VALID,0.143359,
2013-12-30, 00:24:04,VALID,1009.82,VALID,0,VALID,104,VALID,0.112112,VALID,23.2654,VALID,70,VALID,0.170312,
2013-12-30, 00:25:04,VALID,1009.85,VALID,0,VALID,104,VALID,0,VALID,23.2654,VALID,69,VALID,0.0511719,
2013-12-30, 00:26:04,VALID,1009.82,VALID,0,VALID,104,VALID,0,VALID,23.2459,VALID,70,VALID,0,
2013-12-30, 00:27:04,VALID,1009.79,VALID,0,VALID,104,VALID,0.112112,VALID,23.2459,VALID,70,VALID,0,
2013-12-30, 00:28:04,VALID,1009.77,VALID,0,VALID,104,VALID,0.112112,VALID,23.2654,VALID,69,VALID,0.176172,
2013-12-30, 00:29:04,VALID,1009.79,VALID,0,VALID,104,VALID,0,VALID,23.2246,VALID,69,VALID,0.339844,
2013-12-30, 00:30:04,VALID,1009.78,VALID,0,VALID,104,VALID,0,VALID,23.2246,VALID,70,VALID,0,
2013-12-30, 00:31:04,VALID,1009.73,VALID,0,VALID,104,VALID,0,VALID,23.2264,VALID,70,VALID,0.278125,
2013-12-30, 00:32:04,VALID,1009.75,VALID,0,VALID,104,VALID,0,VALID,23.2051,VALID,70,VALID,0.250781,
2013-12-30, 00:33:04,VALID,1009.75,VALID,0,VALID,104,VALID,0,VALID,23.2264,VALID,69,VALID,0.178125,
2013-12-30, 00:34:04,VALID,1009.75,VALID,0,VALID,104,VALID,0,VALID,23.2459,VALID,70,VALID,0,
2013-12-30, 00:35:04,VALID,1009.73,VALID,0,VALID,104,VALID,0,VALID,23.2051,VALID,70,VALID,0.0304688,
2013-12-30, 00:36:04,VALID,1009.75,VALID,0,VALID,104,VALID,0,VALID,23.2264,VALID,69,VALID,0,
2013-12-30, 00:37:04,VALID,1009.73,VALID,0,VALID,104,VALID,0,VALID,23.2459,VALID,70,VALID,0.314453,
2013-12-30, 00:38:04,VALID,1009.72,VALID,0,VALID,104,VALID,0,VALID,23.2246,VALID,69,VALID,0,
2013-12-30, 00:39:04,VALID,1009.71,VALID,0,VALID,104,VALID,0,VALID,23.2459,VALID,70,VALID,0,
2013-12-30, 00:40:04,VALID,1009.72,VALID,0,VALID,104,VALID,0,VALID,23.2654,VALID,69,VALID,0,
2013-12-30, 00:41:04,VALID,1009.7,VALID,0,VALID,104,VALID,0,VALID,23.2654,VALID,70,VALID,0,
2013-12-30, 00:42:04,VALID,1009.72,VALID,0,VALID,104,VALID,0,VALID,23.2441,VALID,70,VALID,0.183203,
2013-12-30, 00:43:04,VALID,1009.7,VALID,0,VALID,104,VALID,0,VALID,23.2866,VALID,69,VALID,0.00195313,
2013-12-30, 00:44:04,VALID,1009.7,VALID,0,VALID,104,VALID,0,VALID,23.2654,VALID,70,VALID,0,
2013-12-30, 00:45:04,VALID,1009.7,VALID,0,VALID,104,VALID,0.112112,VALID,23.2441,VALID,69,VALID,0.0171875,
2013-12-30, 00:46:04,VALID,1009.72,VALID,0,VALID,104,VALID,0,VALID,23.2848,VALID,69,VALID,0,
2013-12-30, 00:47:04,VALID,1009.71,VALID,0,VALID,104,VALID,0,VALID,23.2654,VALID,70,VALID,0.0265625,
2013-12-30, 00:48:04,VALID,1009.7,VALID,0,VALID,104,VALID,0,VALID,23.2654,VALID,70,VALID,0.116797,
2013-12-30, 00:49:04,VALID,1009.72,VALID,0,VALID,104,VALID,0,VALID,23.2441,VALID,70,VALID,0.166406,
2013-12-30, 00:50:04,VALID,1009.67,VALID,0,VALID,104,VALID,0,VALID,23.2654,VALID,70,VALID,0,
2013-12-30, 00:51:04,VALID,1009.69,VALID,0,VALID,104,VALID,0,VALID,23.2654,VALID,69,VALID,0.0296875,
2013-12-30, 00:52:04,VALID,1009.68,VALID,0,VALID,104,VALID,0,VALID,23.2654,VALID,70,VALID,0.214062,
2013-12-30, 00:53:04,VALID,1009.66,VALID,0,VALID,104,VALID,0,VALID,23.2866,VALID,70,VALID,0.276563,
2013-12-30, 00:54:04,VALID,1009.65,VALID,0,VALID,104,VALID,0,VALID,23.2459,VALID,70,VALID,0.210938,
2013-12-30, 00:55:04,VALID,1009.63,VALID,0,VALID,104,VALID,0,VALID,23.2671,VALID,70,VALID,0,
2013-12-30, 00:56:04,VALID,1009.62,VALID,0,VALID,104,VALID,0,VALID,23.2459,VALID,70,VALID,0,
2013-12-30, 00:57:04,VALID,1009.58,VALID,0,VALID,104,VALID,0,VALID,23.2476,VALID,70,VALID,0,
2013-12-30, 00:58:04,VALID,1009.56,VALID,0,VALID,104,VALID,0,VALID,23.2671,VALID,69,VALID,0,
2013-12-30, 00:59:04,VALID,1009.57,VALID,0,VALID,104,VALID,0,VALID,23.2654,VALID,70,VALID,0,
2013-12-30, 01:00:04,VALID,1009.54,VALID,0,VALID,104,VALID,0,VALID,23.2459,VALID,69,VALID,0,
2013-12-30, 01:01:04,VALID,1009.55,VALID,0,VALID,104,VALID,0,VALID,23.2671,VALID,69,VALID,0,
2013-12-30, 01:02:04,VALID,1009.55,VALID,0,VALID,104,VALID,0,VALID,23.2671,VALID,70,VALID,0,
2013-12-30, 01:03:04,VALID,1009.52,VALID,0,VALID,104,VALID,0,VALID,23.2654,VALID,70,VALID,0,
2013-12-30, 01:04:04,VALID,1009.52,VALID,0,VALID,104,VALID,0,VALID,23.2654,VALID,70,VALID,0,
2013-12-30, 01:05:04,VALID,1009.54,VALID,0,VALID,104,VALID,0,VALID,23.2654,VALID,70,VALID,0.138281,
2013-12-30, 01:06:04,VALID,1009.55,VALID,0,VALID,104,VALID,0,VALID,23.2654,VALID,70,VALID,0.158594,
2013-12-30, 01:07:04,VALID,1009.58,VALID,0,VALID,104,VALID,0,VALID,23.2654,VALID,69,VALID,0,
2013-12-30, 01:08:04,VALID,1009.56,VALID,0,VALID,104,VALID,0,VALID,23.2848,VALID,70,VALID,0.0941406,
2013-12-30, 01:09:04,VALID,1009.56,VALID,0,VALID,104,VALID,0,VALID,23.2866,VALID,70,VALID,0.0285156,
2013-12-30, 01:10:04,VALID,1009.54,VALID,0,VALID,104,VALID,0,VALID,23.2866,VALID,70,VALID,0,
2013-12-30, 01:11:04,VALID,1009.55,VALID,0,VALID,104,VALID,0,VALID,23.2654,VALID,70,VALID,0,
2013-12-30, 01:12:04,VALID,1009.52,VALID,0,VALID,104,VALID,0,VALID,23.2654,VALID,69,VALID,0,
2013-12-30, 01:13:04,VALID,1009.49,VALID,0,VALID,104,VALID,0,VALID,23.2459,VALID,69,VALID,0,
2013-12-30, 01:14:04,VALID,1009.51,VALID,0,VALID,104,VALID,0,VALID,23.2866,VALID,70,VALID,0,
2013-12-30, 01:15:04,VALID,1009.48,VALID,0,VALID,104,VALID,0,VALID,23.2671,VALID,70,VALID,0,
2013-12-30, 01:16:04,VALID,1009.46,VALID,0,VALID,104,VALID,0,VALID,23.2459,VALID,70,VALID,0,
2013-12-30, 01:17:04,VALID,1009.47,VALID,0,VALID,104,VALID,0,VALID,23.2459,VALID,70,VALID,0,
2013-12-30, 01:18:05,VALID,1009.48,VALID,0,VALID,104,VALID,0,VALID,23.2654,VALID,69,VALID,0,
2013-12-30, 01:19:05,VALID,1009.48,VALID,0,VALID,104,VALID,0,VALID,23.2654,VALID,70,VALID,0.0773437,
2013-12-30, 01:20:05,VALID,1009.49,VALID,0,VALID,104,VALID,0,VALID,23.2848,VALID,70,VALID,0.290234,
2013-12-30, 01:21:05,VALID,1009.47,VALID,0,VALID,104,VALID,0.112112,VALID,23.3043,VALID,69,VALID,0.439844,
2013-12-30, 01:22:05,VALID,1009.49,VALID,0,VALID,104,VALID,0,VALID,23.3043,VALID,70,VALID,0.529297,
2013-12-30, 01:23:05,VALID,1009.48,VALID,0,VALID,104,VALID,0,VALID,23.3043,VALID,70,VALID,0.161328,
2013-12-30, 01:24:05,VALID,1009.48,VALID,0,VALID,104,VALID,0,VALID,23.3043,VALID,70,VALID,0.394141,
2013-12-30, 01:25:05,VALID,1009.44,VALID,0,VALID,104,VALID,0,VALID,23.3043,VALID,70,VALID,0.431641,
2013-12-30, 01:26:05,VALID,1009.47,VALID,0,VALID,104,VALID,0,VALID,23.3043,VALID,70,VALID,0.502344,
2013-12-30, 01:27:05,VALID,1009.45,VALID,0,VALID,104,VALID,0,VALID,23.3238,VALID,70,VALID,0.725391,
2013-12-30, 01:28:05,VALID,1009.43,VALID,0,VALID,104,VALID,0,VALID,23.3238,VALID,70,VALID,0.367188,
2013-12-30, 01:29:05,VALID,1009.42,VALID,0,VALID,104,VALID,0,VALID,23.3238,VALID,70,VALID,0.480469,
2013-12-30, 01:30:05,VALID,1009.43,VALID,0,VALID,104,VALID,0,VALID,23.3238,VALID,69,VALID,0.253125,
2013-12-30, 01:31:05,VALID,1009.4,VALID,0,VALID,104,VALID,0,VALID,23.3238,VALID,70,VALID,0,
2013-12-30, 01:32:05,VALID,1009.38,VALID,0,VALID,104,VALID,0,VALID,23.3433,VALID,70,VALID,0.328906,
2013-12-30, 01:33:05,VALID,1009.36,VALID,0,VALID,104,VALID,0,VALID,23.3433,VALID,69,VALID,0.342969,
2013-12-30, 01:34:05,VALID,1009.37,VALID,0,VALID,104,VALID,0,VALID,23.3433,VALID,70,VALID,0.172266,
2013-12-30, 01:35:05,VALID,1009.37,VALID,0,VALID,104,VALID,0,VALID,23.3238,VALID,70,VALID,0.492578,
2013-12-30, 01:36:05,VALID,1009.38,VALID,0,VALID,104,VALID,0,VALID,23.3433,VALID,70,VALID,0.303516,
2013-12-30, 01:37:05,VALID,1009.35,VALID,0,VALID,104,VALID,0,VALID,23.3433,VALID,70,VALID,0.121094,
2013-12-30, 01:38:05,VALID,1009.35,VALID,0,VALID,104,VALID,0,VALID,23.3628,VALID,69,VALID,0.122656,
2013-12-30, 01:39:05,VALID,1009.34,VALID,0,VALID,104,VALID,0,VALID,23.3628,VALID,70,VALID,0.16875,
2013-12-30, 01:40:05,VALID,1009.36,VALID,0,VALID,104,VALID,0,VALID,23.3645,VALID,69,VALID,0,
2013-12-30, 01:41:05,VALID,1009.34,VALID,0,VALID,104,VALID,0,VALID,23.3645,VALID,70,VALID,0.275391,
2013-12-30, 01:42:05,VALID,1009.32,VALID,0,VALID,104,VALID,0,VALID,23.3433,VALID,70,VALID,0,
2013-12-30, 01:43:05,VALID,1009.3,VALID,0,VALID,104,VALID,0,VALID,23.3628,VALID,70,VALID,0,
2013-12-30, 01:44:05,VALID,1009.3,VALID,0,VALID,104,VALID,0,VALID,23.3628,VALID,70,VALID,0,
2013-12-30, 01:45:05,VALID,1009.3,VALID,0,VALID,104,VALID,0,VALID,23.3628,VALID,70,VALID,0,
2013-12-30, 01:46:05,VALID,1009.27,VALID,0,VALID,104,VALID,0,VALID,23.3823,VALID,69,VALID,0,
2013-12-30, 01:47:05,VALID,1009.24,VALID,0,VALID,104,VALID,0,VALID,23.423,VALID,69,VALID,0,
2013-12-30, 01:48:05,VALID,1009.23,VALID,0,VALID,104,VALID,0,VALID,23.3823,VALID,69,VALID,0,
2013-12-30, 01:49:05,VALID,1009.25,VALID,0,VALID,104,VALID,0,VALID,23.3823,VALID,69,VALID,0,
2013-12-30, 01:50:05,VALID,1009.19,VALID,0,VALID,104,VALID,0,VALID,23.4017,VALID,70,VALID,0.218359,
2013-12-30, 01:51:05,VALID,1009.18,VALID,0,VALID,104,VALID,0,VALID,23.361,VALID,70,VALID,0.238672,
2013-12-30, 01:52:05,VALID,1009.16,VALID,0,VALID,104,VALID,0,VALID,23.3628,VALID,70,VALID,0.164844,
2013-12-30, 01:53:05,VALID,1009.16,VALID,0,VALID,104,VALID,0,VALID,23.3628,VALID,70,VALID,0,
2013-12-30, 01:54:05,VALID,1009.15,VALID,0,VALID,104,VALID,0,VALID,23.3628,VALID,70,VALID,0,
2013-12-30, 01:55:05,VALID,1009.14,VALID,0,VALID,104,VALID,0,VALID,23.3628,VALID,70,VALID,0.0730469,
2013-12-30, 01:56:05,VALID,1009.12,VALID,0,VALID,104,VALID,0,VALID,23.3645,VALID,70,VALID,0.183594,
2013-12-30, 01:57:05,VALID,1009.09,VALID,0,VALID,104,VALID,0,VALID,23.3238,VALID,70,VALID,0.065625,
2013-12-30, 01:58:05,VALID,1009.07,VALID,0,VALID,104,VALID,0,VALID,23.3433,VALID,69,VALID,0,
2013-12-30, 01:59:05,VALID,1009.06,VALID,0,VALID,104,VALID,0,VALID,23.3238,VALID,69,VALID,0,
2013-12-30, 02:00:05,VALID,1009.04,VALID,0,VALID,104,VALID,0,VALID,23.3238,VALID,69,VALID,0.0015625,
2013-12-30, 02:01:05,VALID,1009.02,VALID,0,VALID,104,VALID,0,VALID,23.3238,VALID,70,VALID,0.107422,
2013-12-30, 02:02:05,VALID,1009,VALID,0,VALID,104,VALID,0,VALID,23.3043,VALID,70,VALID,0,
2013-12-30, 02:03:05,VALID,1009,VALID,0,VALID,104,VALID,0,VALID,23.3043,VALID,69,VALID,0,
2013-12-30, 02:04:05,VALID,1008.99,VALID,0,VALID,104,VALID,0,VALID,23.2831,VALID,70,VALID,0,
2013-12-30, 02:05:05,VALID,1008.97,VALID,0,VALID,104,VALID,0,VALID,23.3043,VALID,69,VALID,0,
2013-12-30, 02:06:05,VALID,1008.97,VALID,0,VALID,104,VALID,0,VALID,23.3043,VALID,70,VALID,0,
2013-12-30, 02:07:05,VALID,1008.92,VALID,0,VALID,104,VALID,0,VALID,23.3043,VALID,69,VALID,0,
2013-12-30, 02:08:05,VALID,1008.94,VALID,0,VALID,104,VALID,0,VALID,23.3043,VALID,69,VALID,0.276563,
2013-12-30, 02:09:05,VALID,1008.91,VALID,0,VALID,104,VALID,0,VALID,23.3043,VALID,70,VALID,0.316016,
2013-12-30, 02:10:05,VALID,1008.92,VALID,0,VALID,104,VALID,0,VALID,23.2848,VALID,69,VALID,0.2875,
2013-12-30, 02:11:05,VALID,1008.91,VALID,0,VALID,104,VALID,0,VALID,23.2654,VALID,69,VALID,0.126563,
2013-12-30, 02:12:05,VALID,1008.87,VALID,0,VALID,104,VALID,0,VALID,23.2654,VALID,69,VALID,0.35,
2013-12-30, 02:13:05,VALID,1008.9,VALID,0,VALID,104,VALID,0,VALID,23.2848,VALID,69,VALID,0.246094,
2013-12-30, 02:14:05,VALID,1008.86,VALID,0,VALID,104,VALID,0,VALID,23.2848,VALID,70,VALID,0.246094,
2013-12-30, 02:15:05,VALID,1008.87,VALID,0,VALID,104,VALID,0,VALID,23.2654,VALID,69,VALID,0.380078,
2013-12-30, 02:16:05,VALID,1008.88,VALID,0,VALID,104,VALID,0,VALID,23.2654,VALID,69,VALID,0.187109,
2013-12-30, 02:17:05,VALID,1008.88,VALID,0,VALID,104,VALID,0,VALID,23.2441,VALID,70,VALID,0.147656,
2013-12-30, 02:18:05,VALID,1008.88,VALID,0,VALID,104,VALID,0,VALID,23.2654,VALID,70,VALID,0.577734,
2013-12-30, 02:19:05,VALID,1008.86,VALID,0,VALID,104,VALID,0,VALID,23.2654,VALID,70,VALID,0.360938,
2013-12-30, 02:20:05,VALID,1008.87,VALID,0,VALID,104,VALID,0,VALID,23.2654,VALID,70,VALID,0.410547,
2013-12-30, 02:21:05,VALID,1008.82,VALID,0,VALID,104,VALID,0,VALID,23.2441,VALID,70,VALID,0.388672,
2013-12-30, 02:22:05,VALID,1008.85,VALID,0,VALID,104,VALID,0,VALID,23.2459,VALID,69,VALID,0.0910156,
2013-12-30, 02:23:05,VALID,1008.8,VALID,0,VALID,104,VALID,0,VALID,23.2459,VALID,70,VALID,0,
2013-12-30, 02:24:05,VALID,1008.8,VALID,0,VALID,104,VALID,0,VALID,23.2459,VALID,70,VALID,0.373047,
2013-12-30, 02:25:05,VALID,1008.82,VALID,0,VALID,104,VALID,0,VALID,23.2459,VALID,70,VALID,0,
2013-12-30, 02:26:05,VALID,1008.8,VALID,0,VALID,104,VALID,0,VALID,23.2459,VALID,70,VALID,0,
2013-12-30, 02:27:05,VALID,1008.79,VALID,0,VALID,104,VALID,0,VALID,23.2264,VALID,70,VALID,0,
2013-12-30, 02:28:05,VALID,1008.77,VALID,0,VALID,104,VALID,0,VALID,23.2264,VALID,69,VALID,0,
2013-12-30, 02:29:05,VALID,1008.76,VALID,0,VALID,104,VALID,0,VALID,23.2264,VALID,69,VALID,0,
2013-12-30, 02:30:05,VALID,1008.74,VALID,0,VALID,104,VALID,0,VALID,23.2264,VALID,70,VALID,0,
2013-12-30, 02:31:05,VALID,1008.74,VALID,0,VALID,104,VALID,0,VALID,23.2264,VALID,70,VALID,0,
2013-12-30, 02:32:05,VALID,1008.73,VALID,0,VALID,104,VALID,0,VALID,23.2264,VALID,70,VALID,0.244531,
2013-12-30, 02:33:05,VALID,1008.73,VALID,0,VALID,104,VALID,0,VALID,23.2069,VALID,70,VALID,0,
2013-12-30, 02:34:05,VALID,1008.74,VALID,0,VALID,104,VALID,0,VALID,23.2069,VALID,70,VALID,0.208984,
2013-12-30, 02:35:05,VALID,1008.71,VALID,0,VALID,104,VALID,0,VALID,23.1874,VALID,69,VALID,0.136328,
2013-12-30, 02:36:05,VALID,1008.74,VALID,0,VALID,104,VALID,0,VALID,23.1874,VALID,70,VALID,0.251563,
2013-12-30, 02:37:05,VALID,1008.69,VALID,0,VALID,104,VALID,0,VALID,23.1679,VALID,70,VALID,0.0015625,
2013-12-30, 02:38:05,VALID,1008.71,VALID,0,VALID,104,VALID,0,VALID,23.1467,VALID,70,VALID,0,
2013-12-30, 02:39:05,VALID,1008.71,VALID,0,VALID,104,VALID,0,VALID,23.1679,VALID,69,VALID,0.0140625,
2013-12-30, 02:40:05,VALID,1008.7,VALID,0,VALID,104,VALID,0,VALID,23.1679,VALID,69,VALID,0,
2013-12-30, 02:41:05,VALID,1008.69,VALID,0,VALID,104,VALID,0,VALID,23.1679,VALID,70,VALID,0,
2013-12-30, 02:42:05,VALID,1008.69,VALID,0,VALID,104,VALID,0,VALID,23.1679,VALID,70,VALID,0,
2013-12-30, 02:43:05,VALID,1008.66,VALID,0,VALID,104,VALID,0,VALID,23.1679,VALID,70,VALID,0,
2013-12-30, 02:44:05,VALID,1008.67,VALID,0,VALID,104,VALID,0,VALID,23.1679,VALID,70,VALID,0,
2013-12-30, 02:45:05,VALID,1008.66,VALID,0,VALID,104,VALID,0,VALID,23.1679,VALID,69,VALID,0,
2013-12-30, 02:46:05,VALID,1008.69,VALID,0,VALID,104,VALID,0,VALID,23.1485,VALID,70,VALID,0,
2013-12-30, 02:47:05,VALID,1008.69,VALID,0,VALID,104,VALID,0,VALID,23.1679,VALID,70,VALID,0,
2013-12-30, 02:48:05,VALID,1008.66,VALID,0,VALID,104,VALID,0,VALID,23.1679,VALID,69,VALID,0,
2013-12-30, 02:49:05,VALID,1008.65,VALID,0,VALID,104,VALID,0,VALID,23.1679,VALID,70,VALID,0,
2013-12-30, 02:50:05,VALID,1008.66,VALID,0,VALID,104,VALID,0,VALID,23.1874,VALID,69,VALID,0,
2013-12-30, 02:51:05,VALID,1008.65,VALID,0,VALID,104,VALID,0,VALID,23.1679,VALID,70,VALID,0,
2013-12-30, 02:52:05,VALID,1008.65,VALID,0,VALID,104,VALID,0,VALID,23.1874,VALID,70,VALID,0,
2013-12-30, 02:53:05,VALID,1008.63,VALID,0,VALID,104,VALID,0,VALID,23.1874,VALID,70,VALID,0,
2013-12-30, 02:54:05,VALID,1008.6,VALID,0,VALID,104,VALID,0,VALID,23.1892,VALID,70,VALID,0,
2013-12-30, 02:55:05,VALID,1008.61,VALID,0,VALID,104,VALID,0,VALID,23.1679,VALID,70,VALID,0,
2013-12-30, 02:56:05,VALID,1008.61,VALID,0,VALID,104,VALID,0,VALID,23.1485,VALID,69,VALID,0,
2013-12-30, 02:57:05,VALID,1008.61,VALID,0,VALID,104,VALID,0,VALID,23.1485,VALID,70,VALID,0,
2013-12-30, 02:58:05,VALID,1008.58,VALID,0,VALID,104,VALID,0,VALID,23.1697,VALID,70,VALID,0,
2013-12-30, 02:59:05,VALID,1008.58,VALID,0,VALID,104,VALID,0,VALID,23.1485,VALID,70,VALID,0,
2013-12-30, 03:00:05,VALID,1008.58,VALID,0,VALID,104,VALID,0,VALID,23.1485,VALID,70,VALID,0,
2013-12-30, 03:01:05,VALID,1008.59,VALID,0,VALID,104,VALID,0,VALID,23.129,VALID,70,VALID,0,
2013-12-30, 03:02:05,VALID,1008.56,VALID,0,VALID,104,VALID,0,VALID,23.129,VALID,70,VALID,0,
2013-12-30, 03:03:05,VALID,1008.55,VALID,0,VALID,104,VALID,0,VALID,23.129,VALID,69,VALID,0,
2013-12-30, 03:04:05,VALID,1008.57,VALID,0,VALID,104,VALID,0,VALID,23.129,VALID,70,VALID,0,
2013-12-30, 03:05:05,VALID,1008.58,VALID,0,VALID,104,VALID,0,VALID,23.129,VALID,70,VALID,0,
2013-12-30, 03:06:05,VALID,1008.56,VALID,0,VALID,104,VALID,0,VALID,23.129,VALID,69,VALID,0,
2013-12-30, 03:07:05,VALID,1008.55,VALID,0,VALID,104,VALID,0,VALID,23.129,VALID,70,VALID,0,
2013-12-30, 03:08:05,VALID,1008.57,VALID,0,VALID,104,VALID,0,VALID,23.129,VALID,69,VALID,0,
2013-12-30, 03:09:05,VALID,1008.55,VALID,0,VALID,104,VALID,0,VALID,23.1095,VALID,69,VALID,0,
2013-12-30, 03:10:05,VALID,1008.55,VALID,0,VALID,104,VALID,0,VALID,23.1095,VALID,69,VALID,0,
2013-12-30, 03:11:05,VALID,1008.54,VALID,0,VALID,104,VALID,0,VALID,23.129,VALID,69,VALID,0,
2013-12-30, 03:12:05,VALID,1008.54,VALID,0,VALID,104,VALID,0,VALID,23.1485,VALID,70,VALID,0,
2013-12-30, 03:13:05,VALID,1008.55,VALID,0,VALID,104,VALID,0,VALID,23.1679,VALID,69,VALID,0,
2013-12-30, 03:14:05,VALID,1008.54,VALID,0,VALID,104,VALID,0,VALID,23.1679,VALID,69,VALID,0,
2013-12-30, 03:15:05,VALID,1008.55,VALID,0,VALID,104,VALID,0,VALID,23.1874,VALID,69,VALID,0,
2013-12-30, 03:16:05,VALID,1008.53,VALID,0,VALID,104,VALID,0,VALID,23.1679,VALID,69,VALID,0,
2013-12-30, 03:17:05,VALID,1008.53,VALID,0,VALID,104,VALID,0,VALID,23.1679,VALID,70,VALID,0,
2013-12-30, 03:18:05,VALID,1008.55,VALID,0,VALID,104,VALID,0,VALID,23.1679,VALID,70,VALID,0,
2013-12-30, 03:19:05,VALID,1008.57,VALID,0,VALID,104,VALID,0,VALID,23.1697,VALID,69,VALID,0,
2013-12-30, 03:20:05,VALID,1008.58,VALID,0,VALID,104,VALID,0,VALID,23.1485,VALID,70,VALID,0,
2013-12-30, 03:21:05,VALID,1008.57,VALID,0,VALID,104,VALID,0,VALID,23.1485,VALID,70,VALID,0,
2013-12-30, 03:22:05,VALID,1008.59,VALID,0,VALID,104,VALID,0,VALID,23.129,VALID,69,VALID,0,
2013-12-30, 03:23:05,VALID,1008.57,VALID,0,VALID,104,VALID,0,VALID,23.129,VALID,70,VALID,0,
2013-12-30, 03:24:05,VALID,1008.59,VALID,0,VALID,104,VALID,0,VALID,23.129,VALID,70,VALID,0,
2013-12-30, 03:25:05,VALID,1008.6,VALID,0,VALID,104,VALID,0,VALID,23.129,VALID,70,VALID,0,
2013-12-30, 03:26:05,VALID,1008.59,VALID,0,VALID,104,VALID,0,VALID,23.1095,VALID,69,VALID,0,
2013-12-30, 03:27:05,VALID,1008.59,VALID,0,VALID,104,VALID,0,VALID,23.1095,VALID,69,VALID,0,
2013-12-30, 03:28:05,VALID,1008.56,VALID,0,VALID,104,VALID,0,VALID,23.1095,VALID,69,VALID,0,
2013-12-30, 03:29:05,VALID,1008.54,VALID,0,VALID,104,VALID,0,VALID,23.129,VALID,69,VALID,0,
2013-12-30, 03:30:05,VALID,1008.55,VALID,0,VALID,104,VALID,0,VALID,23.1095,VALID,70,VALID,0,
2013-12-30, 03:31:05,VALID,1008.57,VALID,0,VALID,104,VALID,0,VALID,23.1095,VALID,70,VALID,0,
2013-12-30, 03:32:05,VALID,1008.57,VALID,0,VALID,104,VALID,0,VALID,23.1095,VALID,69,VALID,0,
2013-12-30, 03:33:05,VALID,1008.54,VALID,0,VALID,104,VALID,0,VALID,23.1307,VALID,69,VALID,0,
2013-12-30, 03:34:05,VALID,1008.54,VALID,0,VALID,104,VALID,0,VALID,23.1095,VALID,69,VALID,0,
2013-12-30, 03:35:05,VALID,1008.55,VALID,0,VALID,104,VALID,0,VALID,23.09,VALID,70,VALID,0,
2013-12-30, 03:36:05,VALID,1008.5,VALID,0,VALID,104,VALID,0,VALID,23.09,VALID,70,VALID,0,
2013-12-30, 03:37:05,VALID,1008.49,VALID,0,VALID,104,VALID,0,VALID,23.0511,VALID,69,VALID,0,
2013-12-30, 03:38:05,VALID,1008.51,VALID,0,VALID,104,VALID,0,VALID,23.0705,VALID,69,VALID,0,
2013-12-30, 03:39:05,VALID,1008.49,VALID,0,VALID,104,VALID,0,VALID,23.0705,VALID,69,VALID,0,
2013-12-30, 03:40:05,VALID,1008.51,VALID,0,VALID,104,VALID,0,VALID,23.0705,VALID,69,VALID,0,
2013-12-30, 03:41:05,VALID,1008.51,VALID,0,VALID,104,VALID,0,VALID,23.0493,VALID,70,VALID,0,
2013-12-30, 03:42:05,VALID,1008.5,VALID,0,VALID,104,VALID,0,VALID,23.0705,VALID,70,VALID,0,
2013-12-30, 03:43:05,VALID,1008.5,VALID,0,VALID,104,VALID,0,VALID,23.0705,VALID,70,VALID,0,
2013-12-30, 03:44:05,VALID,1008.5,VALID,0,VALID,104,VALID,0,VALID,23.0511,VALID,70,VALID,0,
2013-12-30, 03:45:05,VALID,1008.49,VALID,0,VALID,104,VALID,0,VALID,23.0511,VALID,70,VALID,0,
2013-12-30, 03:46:05,VALID,1008.49,VALID,0,VALID,104,VALID,0,VALID,23.0723,VALID,70,VALID,0,
2013-12-30, 03:47:05,VALID,1008.5,VALID,0,VALID,104,VALID,0,VALID,23.0705,VALID,70,VALID,0,
2013-12-30, 03:48:05,VALID,1008.51,VALID,0,VALID,104,VALID,0,VALID,23.09,VALID,70,VALID,0,
2013-12-30, 03:49:05,VALID,1008.51,VALID,0,VALID,104,VALID,0,VALID,23.09,VALID,69,VALID,0,
2013-12-30, 03:50:05,VALID,1008.51,VALID,0,VALID,104,VALID,0,VALID,23.0705,VALID,69,VALID,0,
2013-12-30, 03:51:05,VALID,1008.52,VALID,0,VALID,104,VALID,0,VALID,23.09,VALID,70,VALID,0,
2013-12-30, 03:52:05,VALID,1008.51,VALID,0,VALID,104,VALID,0,VALID,23.0493,VALID,70,VALID,0,
2013-12-30, 03:53:05,VALID,1008.5,VALID,0,VALID,104,VALID,0,VALID,23.0705,VALID,70,VALID,0,
2013-12-30, 03:54:05,VALID,1008.51,VALID,0,VALID,104,VALID,0,VALID,23.0705,VALID,70,VALID,0,
2013-12-30, 03:55:05,VALID,1008.51,VALID,0,VALID,104,VALID,0,VALID,23.0511,VALID,70,VALID,0,
2013-12-30, 03:56:05,VALID,1008.51,VALID,0,VALID,104,VALID,0,VALID,23.0511,VALID,70,VALID,0,
2013-12-30, 03:57:05,VALID,1008.53,VALID,0,VALID,104,VALID,0,VALID,23.0121,VALID,70,VALID,0,
2013-12-30, 03:58:05,VALID,1008.52,VALID,0,VALID,104,VALID,0,VALID,23.0121,VALID,70,VALID,0,
2013-12-30, 03:59:05,VALID,1008.52,VALID,0,VALID,104,VALID,0,VALID,23.0121,VALID,70,VALID,0,
2013-12-30, 04:00:04,VALID,1008.56,VALID,0,VALID,104,VALID,0,VALID,23.0121,VALID,70,VALID,0,
2013-12-30, 04:01:04,VALID,1008.55,VALID,0,VALID,104,VALID,0,VALID,23.0121,VALID,70,VALID,0,
2013-12-30, 04:02:04,VALID,1008.55,VALID,0,VALID,104,VALID,0,VALID,23.0316,VALID,70,VALID,0,
2013-12-30, 04:03:04,VALID,1008.57,VALID,0,VALID,104,VALID,0,VALID,23.0316,VALID,70,VALID,0,
2013-12-30, 04:04:04,VALID,1008.57,VALID,0,VALID,104,VALID,0,VALID,23.0121,VALID,70,VALID,0,
2013-12-30, 04:05:04,VALID,1008.54,VALID,0,VALID,104,VALID,0,VALID,23.0121,VALID,70,VALID,0,